User: anonymous   Login
Location: Unspecified
(0.0000°N, 0.0000°E)
Time: 00:36:45
(UTC+02:00)
Language:

SWIFT - Orbit

View from above orbital plane
View from above orbital plane
View from above satellite
View from above satellite

Ground track
Ground track

The orbit data is extracted from the following two-line orbital elements,

1 28485U 04047A   17116.35367623 +.00001519 +00000-0 +76029-4 0  9997
2 28485 020.5561 137.0842 0011158 304.1332 055.8043 15.03685728680379
Epoch (UTC): 26 April 2017 08:29:17
Eccentricity: 0.0011158
inclination: 20.5561°
perigee height: 548 km
apogee height: 563 km
right ascension of ascending node: 137.0842°
argument of perigee: 304.1332°
revolutions per day: 15.03685728
mean anomaly at epoch: 55.8043°
orbit number at epoch: 68037

The dashed part of the orbit path shows where the satellite is in the earth's shadow,  

DLR